Regional Weather Roundup
Issued by NWS

Home | Current Version | Previous Version | Text Only | Print | Product List | Glossary Off
Versions: 1 2 3 4 5 6 7 8 9 10 11 12 13 14 15 16 17 18 19 20 21 22 23 24 25 26 27 28 29 30 31 32 33 34 35 36 37 38 39 40 41 42 43 44 45 46 47 48 49 50

000
ASUS45 KTFX 291710
RWRMT
MONTANA REGIONAL WEATHER ROUNDUP
NATIONAL WEATHER SERVICE GREAT FALLS MT
1100 AM MDT FRI MAY 29 2015

NOTE: "FAIR" INDICATES FEW OR NO CLOUDS BELOW 12000 FEET WITH NO
SIGNIFICANT WEATHER AND/OR OBSTRUCTIONS TO VISIBILITY.

MTZ001>007-043-291800-
WEST OF THE DIVIDE

CITY           SKY/WX    TMP DP  RH WIND       PRES   REMARKS
KALISPELL      SUNNY     64  44  48 E7        30.15F
MISSOULA       SUNNY     63  43  48 SE10G18   30.17F
BUTTE          MOSUNNY   57  41  55 S9        30.25F
MULLAN PASS    MOSUNNY   50  43  77 VRB5      30.19S
DEER LODGE       N/A     61  46  59 SE8       30.24F
EUREKA           N/A     64  45  48 N8        30.13F
HAMILTON         N/A     61  45  55 E5        30.15F
LIBBY            N/A     59  50  72 CALM      30.16F
PLAINS           N/A     64  50  60 CALM      30.13F
RONAN            N/A     64  46  52 W5        30.19F
$$

MTZ008-052>055-291800-
SOUTHWEST MONTANA

CITY           SKY/WX    TMP DP  RH WIND       PRES   REMARKS
BOZEMAN        PTSUNNY   59  47  64 VRB5      30.26F
DILLON         MOSUNNY   52  44  74 VRB3      30.25F
W YELLOWSTONE  PTSUNNY   50  39  66 CALM      30.31S
THREE FORKS      N/A     56  56 100 SW1       30.23F
$$

MTZ009-010-012-014-046-048-049-054-291800-
EAST SLOPES AND CENTRAL MONTANA

CITY           SKY/WX    TMP DP  RH WIND       PRES   REMARKS
CUT BANK       CLOUDY    50  42  74 SE12      30.24F
GREAT FALLS    CLOUDY    50  45  83 SE3       30.25F
MALMSTROM AFB  PTSUNNY   51  47  86 E6        30.27F
HELENA         MOSUNNY   59  45  59 NE6       30.23F
CONRAD           N/A     52  49  89 E9        30.25F
$$

MTZ011-013-016-021-045-047-050-051-291800-
NORTH CENTRAL MONTANA

CITY           SKY/WX    TMP DP  RH WIND       PRES   REMARKS
HAVRE          CLOUDY    56  41  57 E5        30.28F
LEWISTOWN      CLOUDY    54  44  69 E12       30.29F
N BAR RANCH    CLOUDY    45  41  87 S8        30.35R
CHINOOK          N/A     55  39  54 E10G16    30.30F
FORT BENTON      N/A     55  43  62 E10       30.28F
$$

MTZ017>020-022>027-061-062-291800-
NORTHEAST MONTANA

CITY           SKY/WX    TMP DP  RH WIND       PRES   REMARKS
GLASGOW        MOSUNNY   50  33  52 NE6       30.35S
JORDAN           N/A     52  35  52 VRB7      30.34S
SIDNEY         MOSUNNY   52  30  43 N5        30.33S
WOLF POINT     MOSUNNY   50  33  52 CALM      30.36S
MALTA            N/A     54  36  50 E2        30.28F
PLENTYWOOD       N/A     46  30  53 N8G16     30.34S
POPLAR           N/A     48  30  49 NW7       30.35F
SCOBEY           N/A     45  30  55 N5        30.31S
$$

MTZ028>42-056>058-291800-
SOUTHCENTRAL AND SOUTHEAST MONTANA

CITY           SKY/WX    TMP DP  RH WIND       PRES   REMARKS
BAKER          MOSUNNY   50  35  56 N12       30.30S
BILLINGS       CLOUDY    48  41  76 E8        30.33S
LIVINGSTON     CLOUDY    51  45  79 E10       30.28F
MILES CITY     MOSUNNY   52  32  46 N8        30.33R
BIG TIMBER       N/A     46  45  93 E9        30.31S
EKALAKA          N/A     44  33  65 N7        30.25R
LAUREL           N/A     50  42  73 N6        30.29S
ROUNDUP          N/A     51  38  61 CALM      30.22S
$$

REGIONAL REPORTS...DAKOTAS

CITY           SKY/WX    TMP DP  RH WIND       PRES   REMARKS
WILLISTON      CLOUDY    49  33  54 N13       30.33S
MINOT          CLOUDY    45  34  65 NW15      30.29R
DICKINSON      CLOUDY    47  33  58 N10G20    30.27R
BEACH          PTSUNNY   48  32  53 N15G22    30.31S
CROSBY         PTSUNNY   46  32  57 N8G18     30.34S
WATFORD CITY   PTSUNNY   46  36  66 N13       30.30S
BISMARCK       CLOUDY    52  34  50 N16G23    30.24R
GRAND FORKS    CLOUDY    46  37  71 N25G32    30.17R
FARGO          CLOUDY    47  40  76 N21G32    30.13R
BUFFALO SD       N/A     49  38  65 N14       30.21R
RAPID CITY     CLOUDY    47  45  93 N24G33    30.23R
$$

REGIONAL REPORTS...WYOMING/IDAHO/WASHINGTON

CITY           SKY/WX    TMP DP  RH WIND       PRES   REMARKS
GILLETTE       CLOUDY    48  38  68 N15       30.29S
SHERIDAN       CLOUDY    44  42  93 NE3       30.32S
BUFFALO WY     CLOUDY    46  44  93 NW15      30.31S
CODY           CLOUDY    48  46  93 NE10      30.30S
YELLOWSTONE LA   N/A     45  37  73 CALM      30.36S
IDAHO FALLS    MOSUNNY   60  45  57 N3        30.24S
SALMON         CLOUDY    61  46  59 CALM      30.18F
BOISE          SUNNY     76  43  30 SE15G23   30.10F
SPOKANE        PTSUNNY   67  51  56 E9        30.05F
$$

REGIONAL REPORTS...ALBERTA

CITY           SKY/WX    TMP DP  RH WIND       PRES   REMARKS
EDMONTON       PTSUNNY   55  30  38 SE9G20    30.29F
CALGARY        PTSUNNY   54  37  54 S17       30.22S
LETHBRIDGE     PTSUNNY   55  45  67 S15G23    30.21F
MEDICINE HAT   MOSUNNY   59  34  38 E2        30.28F
$$

REGIONAL REPORTS...SASKATCHEWAN

CITY           SKY/WX    TMP DP  RH WIND       PRES   REMARKS
SWIFT CURRENT  SUNNY     48  30  49 E10       30.34F
REGINA         MOSUNNY   48  28  46 NW13G21   30.36F
SASKATOON      MOSUNNY   48  23  37 VRB8      30.42F
$$



USA.gov is the U.S. government's official web portal to all federal, state and local government web resources and services.